Location: Newark
(45.2500°N, 7.5833°E)
Time: 01:06:01
(UTC+00:00)

Vanguard 1 - All Passes

Search period start: 28 January 2020 00:00
Search period end: 07 February 2020 00:00
Orbit: 650 x 3833 km, 34.2° (Epoch: 27 January)

Date Brightness Start Highest point End Pass type
(mag) Time Alt. Az. Time Alt. Az. Time Alt. Az.
28 Jan - 16:18:06 10° SW 16:21:28 20° S 16:24:55 10° ESE daylight
28 Jan - 18:37:13 10° WSW 18:40:46 21° S 18:45:14 10° SE visible
28 Jan - 20:58:56 10° SW 21:00:44 11° SSW 21:02:46 10° S visible
29 Jan - 14:20:24 10° SSW 14:22:52 13° SSE 14:25:08 10° SE daylight
29 Jan - 16:38:42 10° SW 16:42:10 22° S 16:45:47 10° SE daylight
29 Jan - 18:58:19 10° SW 19:01:32 18° S 19:05:31 10° SSE visible
30 Jan - 14:40:16 10° SSW 14:43:37 17° SSE 14:46:34 10° SE daylight
30 Jan - 16:59:27 10° SW 17:02:53 22° S 17:06:32 10° SE visible
30 Jan - 19:19:46 10° SW 19:22:20 14° SSW 19:25:20 10° SSE visible
31 Jan - 12:44:03 10° SSE 12:44:40 10° SSE 12:45:16 10° SSE daylight
31 Jan - 15:00:35 10° SW 15:04:21 20° S 15:07:38 10° SE daylight
31 Jan - 17:20:20 10° SW 17:23:35 20° S 17:27:06 10° SE visible
01 Feb - 13:02:05 10° SSW 13:05:30 14° SSE 13:08:19 10° SE daylight
01 Feb - 15:21:10 10° SW 15:25:04 22° S 15:28:31 10° SE daylight
01 Feb - 17:41:23 10° SW 17:44:18 17° SSW 17:47:28 10° SSE visible
02 Feb - 13:21:51 10° SSW 13:26:19 18° SSE 13:29:48 10° SE daylight
02 Feb - 15:41:54 10° SW 15:45:47 22° S 15:49:16 10° SE daylight
02 Feb - 18:02:46 10° SW 18:05:01 13° SSW 18:07:24 10° SSE visible
03 Feb - 11:24:18 10° S 11:26:57 12° SSE 11:29:15 10° SE daylight
03 Feb - 13:42:06 10° SW 13:47:07 22° S 13:50:54 10° ESE daylight
03 Feb - 16:02:45 10° WSW 16:06:29 21° S 16:09:54 10° SE daylight
04 Feb - 11:42:47 10° SSW 11:47:52 16° SSE 11:51:45 10° SE daylight
04 Feb - 14:02:39 10° SW 14:07:54 25° S 14:11:49 10° ESE daylight
04 Feb - 16:23:46 10° WSW 16:27:10 19° SSW 16:30:21 10° SSE daylight
05 Feb - 12:02:26 10° SSW 12:08:46 20° SSE 12:13:16 10° ESE daylight
05 Feb - 14:23:23 10° WSW 14:28:38 26° S 14:32:36 10° SE daylight
05 Feb - 16:44:59 10° SW 16:47:49 16° SSW 16:50:31 10° SSE daylight
06 Feb - 10:04:22 10° S 10:08:51 13° SSE 10:12:32 10° SE daylight
06 Feb - 12:22:36 10° SW 12:29:38 25° S 12:34:24 10° ESE daylight
06 Feb - 14:44:16 10° WSW 14:49:22 26° S 14:53:16 10° SE daylight
06 Feb - 17:06:42 10° SW 17:08:26 12° SSW 17:10:08 10° S daylight
